Change the Weather History Date:

Friday, December 16, 2011

  Actual Average Record
Temperature  
Mean Temperature 47 °F -  
Max Temperature 55 °F 40 °F 60 °F (2008)
Min Temperature 37 °F 23 °F 8 °F (2013)
Degree Days  
Heating Degree Days 18    
Moisture  
Dew Point 32 °F    
Average Humidity 56    
Maximum Humidity 80    
Minimum Humidity 41    
Precipitation  
Precipitation 0.00 in - - ()
Sea Level Pressure  
Sea Level Pressure 29.91 in    
Wind  
Wind Speed 11 mph (West)    
Max Wind Speed 22 mph    
Max Gust Speed 36 mph    
Visibility 10 miles    
Events      
Averages and records for this station are not official NWS values.
T = Trace of Precipitation, MM = Missing Value Source: NWS Daily Summary

Daily Weather History Graph

Daily Weather History Graph

Search for Another Location

Airport or City:

Trip Planner

Search our weather history database for the weather conditions in past years. The results will help you decide how hot, cold, wet, or windy it might be!

Date:

Astronomy

Dec. 16, 2011 Rise Set
Actual Time 7:06 AM EST 4:13 PM EST
Civil Twilight 6:34 AM EST 4:45 PM EST
Nautical Twilight 5:59 AM EST 5:20 PM EST
Astronomical Twilight 5:25 AM EST 5:54 PM EST
Moon 10:49 PM EST (12/16) 10:45 AM EST (12/16)
Length of Visible Light 10h 10m
Length of Day
9h 06m
Waning Gibbous, 65% of the Moon is Illuminated
Dec 16
Waning Gibbous
Dec 17
Last Quarter
Dec 24
New
Jan 1
First Quarter
Jan 9
Full

Hourly Weather History & Observations

Time (EST) Temp. Windchill Dew Point Humidity Pressure Visibility Wind Dir Wind Speed Gust Speed Precip Events Conditions
12:53 AM 55.0 °F - 48.0 °F 77% 29.69 in 10.0 mi SW 8.1 mph - 0.00 in   Mostly Cloudy
1:53 AM 54.0 °F - 46.9 °F 77% 29.65 in 10.0 mi SW 6.9 mph - N/A   Partly Cloudy
2:53 AM 52.0 °F - 46.0 °F 80% 29.64 in 10.0 mi South 5.8 mph - N/A   Clear
3:53 AM 55.0 °F - 46.0 °F 72% 29.63 in 10.0 mi WSW 11.5 mph 24.2 mph N/A   Clear
5:53 AM 51.1 °F - 39.9 °F 66% 29.72 in 10.0 mi WNW 11.5 mph 20.7 mph 0.00 in   Overcast
6:53 AM 51.1 °F - 35.1 °F 54% 29.78 in 10.0 mi West 21.9 mph 35.7 mph N/A   Mostly Cloudy
7:53 AM 48.9 °F - 30.9 °F 50% 29.83 in 10.0 mi WNW 17.3 mph 35.7 mph N/A   Clear
8:53 AM 48.0 °F - 27.0 °F 44% 29.89 in 10.0 mi WNW 16.1 mph 28.8 mph N/A   Clear
9:53 AM 48.0 °F - 26.1 °F 42% 29.91 in 10.0 mi WNW 18.4 mph 28.8 mph N/A   Clear
10:53 AM 48.0 °F - 26.1 °F 42% 29.92 in 10.0 mi West 18.4 mph 33.4 mph N/A   Partly Cloudy
11:53 AM 48.9 °F - 27.0 °F 43% 29.91 in 10.0 mi West 19.6 mph 32.2 mph N/A   Clear
12:53 PM 48.9 °F - 26.1 °F 41% 29.93 in 10.0 mi WNW 16.1 mph 33.4 mph N/A   Mostly Cloudy
1:53 PM 48.9 °F - 26.1 °F 41% 29.96 in 10.0 mi WNW 16.1 mph 25.3 mph N/A   Scattered Clouds
2:53 PM 48.0 °F - 27.0 °F 44% 29.98 in 10.0 mi West 16.1 mph - N/A   Scattered Clouds
3:53 PM 46.9 °F - 27.0 °F 46% 30.01 in 10.0 mi WNW 10.4 mph 17.3 mph N/A   Clear
4:53 PM 44.1 °F 40.8 °F 27.0 °F 51% 30.02 in 10.0 mi WSW 5.8 mph - N/A   Clear
5:53 PM 42.1 °F 37.7 °F 27.0 °F 55% 30.04 in 10.0 mi WSW 6.9 mph - N/A   Clear
6:53 PM 42.1 °F 37.1 °F 27.0 °F 55% 30.07 in 10.0 mi West 8.1 mph - N/A   Clear
7:53 PM 41.0 °F 37.1 °F 27.0 °F 57% 30.05 in 10.0 mi WNW 5.8 mph - N/A   Clear
8:53 PM 41.0 °F 35.2 °F 27.0 °F 57% 30.05 in 10.0 mi WNW 9.2 mph - N/A   Clear
9:53 PM 39.9 °F 34.5 °F 28.0 °F 63% 30.06 in 10.0 mi West 8.1 mph - N/A   Clear
10:53 PM 39.9 °F 37.8 °F 28.0 °F 63% 30.07 in 10.0 mi West 3.5 mph - N/A   Clear
11:53 PM 37.9 °F - 30.0 °F 73% 30.05 in 10.0 mi Calm Calm - N/A   Clear